Skip Page Navigation
NASA JPL Caltech
NASA Logo - Jet Propulsion Laboratory + View the NASA Portal
+ Center for Near-Earth Object Studies
JPL Home Earth Solar System Stars & Galaxies Technology
JPL Solar System Dynamics
BODIES ORBITS EPHEMERIDES TOOLS PHYSICAL DATA DISCOVERY FAQ SITE MAP
JPL Small-Body Database Browser
Search: [ help ]  
85516 Vaclik (1997 VF)
Classification: Main-belt Asteroid          SPK-ID: 2085516
Ephemeris | Orbit Diagram | Orbital Elements | Mission Design | Physical Parameters | Discovery Circumstances | Close-Approach Data ]

[ show orbit diagram ]
Orbital Elements at Epoch 2459000.5 (2020-May-31.0) TDB
Reference: JPL 21 (heliocentric ecliptic J2000)
 Element Value Uncertainty (1-sigma)   Units 
e .2445996191766192 6.2918e-08  
a 2.34863512724115 9.1675e-09 au
q 1.774159869533134 1.4452e-07 au
i 5.770370299182858 4.8759e-06 deg
node 60.30834958477843 4.3715e-05 deg
peri 310.3386024399704 4.4739e-05 deg
M 117.254381108452 1.0682e-05 deg
tp 2458572.298353414527
(2019-Mar-29.79835341)
3.7534e-05 TDB
period 1314.685142793854
3.60
7.6974e-06
2.107e-08
d
yr
n .273829823036533 1.6033e-09 deg/d
Q 2.923110384949165 1.141e-08 au
  Orbit Determination Parameters
   # obs. used (total)      598  
   data-arc span      8207 days (22.47 yr)  
   first obs. used      1997-10-29  
   last obs. used      2020-04-18  
   planetary ephem.      DE431  
   SB-pert. ephem.      SB431-N16  
   condition code      0  
   norm. resid. RMS      .58289  
   source      ORB  
   producer      Otto Matic  
   solution date      2020-May-20 15:37:21  

Additional Information
 Earth MOID = .781063 au 
 Jupiter MOID = 2.54878 au 
 T_jup = 3.512 
[ show covariance matrix ]

Ephemeris | Orbit Diagram | Orbital Elements | Mission Design | Physical Parameters | Discovery Circumstances | Close-Approach Data ]

Physical Parameter Table
Parameter Symbol Value Units Sigma Reference Notes
absolute magnitude H 16.4   n/a MPO453285  
diameter diameter 2.473 km 0.729 urn:nasa:pds:neowise_diameters_albedos::2.0[mainbelt] (http://adsabs.harvard.edu/abs/2016AJ....152...63N)  
geometric albedo albedo 0.052   0.029 urn:nasa:pds:neowise_diameters_albedos::2.0[mainbelt] (http://adsabs.harvard.edu/abs/2011ApJ...741...68M)  

85516 Vaclík           Discovered 1997 Nov. 2 by J. Ticha and M. Tichy at Klet.
František "Freddy" Vaclík (1942-2010) was an amateur astronomer interested in variable star visual observations and searching for moldavites. He actively took part in astronomical biking "Ebicykl" and served as the long-time chairman of the Czech Astronomical Society in Southern Bohemia.
NOTE: some special characters may not display properly (any characters within {} are an attempt to place the proper accent above a character)
Reference: 20101128/MPCPages.arcLast Updated: 2010-12-06

[ hide close-approach data ]
Close-Approach Data   ...sorted by Date/Time (TDB)
Date/Time (TDB) Time Uncertainty
(days_HH:MM)
Body Nominal Distance (au) Minimum Distance (au) Maximum Distance (au) V-relative (km/s) V-infinity (km/s) JD (TDB) Time Uncertainty (minutes) Semi-major axis (km) Semi-minor axis (km) range-LOV angle (deg) N-sigma BP Orbit Ref. Reference Modified
2189-Sep-13 07:12 < 00:01 Hebe 0.0227908280478594 0.0227712023340796 0.0228104967184543 4.17096827126855 4.17096820587114 2520831.800204705 0.930168959794899 1843.3280240004 54.079765875419 -57.9531306593888 53414.325691966 T 21 CATAB v2.0f-lin.ifort 2020-May-20 15:37:30 2020-May-20 15:37
Ephemeris | Orbit Diagram | Orbital Elements | Mission Design | Physical Parameters | Discovery Circumstances | Close-Approach Data ]
ABOUT SSD CREDITS/AWARDS PRIVACY/COPYRIGHT GLOSSARY LINKS
FirstGov 2020-Oct-28 18:22 UT
(server date/time)  
NASA Home Page
Site Manager:   Ryan S. Park
Webmaster  Alan B. Chamberlin